VOZ1526 YMLT-YMML

Flight info

Callsign VOZ1526
Flight time 0h 50m
Altitude 34000
Route FLIKI H215 RAZZI
Aircraft B737/M-SDE2E3FGHIRWXY/LB1

Departure

Time 2026-04-18 06:18
Airport Launceston Airport (YMLT)

Arrival

Time 2026-04-18 07:09
Airport Melbourne Airport (YMML)
Time Latitude Longitude Altitude Speed Heading
2026-04-18 05:38 -41.54264 147.20637 582 ft 0 kts 294°
2026-04-18 06:13 -41.54268 147.20648 582 ft 4 kts 293°
2026-04-18 06:13 -41.54277 147.20682 582 ft 4 kts 290°
2026-04-18 06:13 -41.54288 147.20714 583 ft 4 kts 307°
2026-04-18 06:13 -41.54297 147.20728 583 ft 0 kts 327°
2026-04-18 06:15 -41.54296 147.20726 583 ft 2 kts 327°
2026-04-18 06:16 -41.54240 147.20680 583 ft 16 kts 329°
2026-04-18 06:16 -41.54145 147.20598 582 ft 16 kts 327°
2026-04-18 06:16 -41.54048 147.20514 583 ft 17 kts 327°
2026-04-18 06:16 -41.53945 147.20427 586 ft 19 kts 330°
2026-04-18 06:17 -41.53837 147.20334 590 ft 18 kts 333°
2026-04-18 06:17 -41.53739 147.20389 594 ft 18 kts 80°
2026-04-18 06:17 -41.53937 147.20614 591 ft 75 kts 148°
2026-04-18 06:17 -41.54580 147.21161 593 ft 142 kts 150°
2026-04-18 06:18 -41.55506 147.21884 1103 ft 156 kts 151°
2026-04-18 06:18 -41.56456 147.22627 1956 ft 160 kts 156°
2026-04-18 06:18 -41.57636 147.22879 2389 ft 187 kts 187°
2026-04-18 06:18 -41.58937 147.22217 2748 ft 213 kts 215°
2026-04-18 06:19 -41.59891 147.20672 3525 ft 224 kts 245°
2026-04-18 06:19 -41.60084 147.18603 4540 ft 229 kts 278°
2026-04-18 06:19 -41.59354 147.16689 5473 ft 239 kts 313°
2026-04-18 06:19 -41.57866 147.15623 6249 ft 256 kts 349°
2026-04-18 06:20 -41.56057 147.15743 7027 ft 265 kts
2026-04-18 06:20 -41.54219 147.16118 7834 ft 270 kts
2026-04-18 06:20 -41.52334 147.16430 8621 ft 276 kts
2026-04-18 06:20 -41.50428 147.16685 9395 ft 281 kts
2026-04-18 06:21 -41.48460 147.16919 10183 ft 286 kts
2026-04-18 06:21 -41.46468 147.16939 10903 ft 286 kts 344°
2026-04-18 06:21 -41.44539 147.16108 11302 ft 302 kts 334°
2026-04-18 06:21 -41.42507 147.15007 11511 ft 328 kts 333°
2026-04-18 06:22 -41.40319 147.13779 11752 ft 352 kts 333°
2026-04-18 06:22 -41.38024 147.12495 12366 ft 362 kts 333°
2026-04-18 06:22 -41.35676 147.11197 13194 ft 366 kts 333°
2026-04-18 06:22 -41.33342 147.09919 14046 ft 370 kts 333°
2026-04-18 06:23 -41.30946 147.08613 14821 ft 374 kts 333°
2026-04-18 06:23 -41.28521 147.07298 15578 ft 379 kts 333°
2026-04-18 06:23 -41.26064 147.05968 16331 ft 384 kts 334°
2026-04-18 06:23 -41.23573 147.04623 17145 ft 387 kts 334°
2026-04-18 06:24 -41.21061 147.03268 17938 ft 391 kts 334°
2026-04-18 06:24 -41.18527 147.01904 18676 ft 395 kts 334°
2026-04-18 06:24 -41.15964 147.00525 19329 ft 400 kts 334°
2026-04-18 06:24 -41.13364 146.99126 19992 ft 405 kts 333°
2026-04-18 06:25 -41.10766 146.97729 20596 ft 411 kts 334°
2026-04-18 06:25 -41.08097 146.96295 21204 ft 416 kts 334°
2026-04-18 06:25 -41.05398 146.94848 21861 ft 420 kts 334°
2026-04-18 06:25 -41.02674 146.93389 22518 ft 423 kts 334°
2026-04-18 06:26 -40.99935 146.91924 23193 ft 427 kts 334°
2026-04-18 06:26 -40.97149 146.90434 23770 ft 432 kts 334°
2026-04-18 06:26 -40.94345 146.88935 24257 ft 437 kts 334°
2026-04-18 06:26 -40.91517 146.87425 24773 ft 440 kts 334°
2026-04-18 06:27 -40.88664 146.85903 25293 ft 444 kts 333°
2026-04-18 06:27 -40.85788 146.84370 25779 ft 448 kts 333°
2026-04-18 06:27 -40.82924 146.82845 26266 ft 451 kts 333°
2026-04-18 06:27 -40.80005 146.81293 26808 ft 452 kts 333°
2026-04-18 06:28 -40.77075 146.79738 27332 ft 455 kts 333°
2026-04-18 06:28 -40.74118 146.78167 27765 ft 459 kts 333°
2026-04-18 06:28 -40.71136 146.76585 28187 ft 463 kts 333°
2026-04-18 06:28 -40.68131 146.74992 28631 ft 467 kts 333°
2026-04-18 06:29 -40.65106 146.73391 29076 ft 470 kts 333°
2026-04-18 06:29 -40.62061 146.71780 29481 ft 474 kts 333°
2026-04-18 06:29 -40.59005 146.70166 30032 ft 472 kts 334°
2026-04-18 06:29 -40.55970 146.68568 30704 ft 467 kts 334°
2026-04-18 06:30 -40.52960 146.66985 31268 ft 464 kts 333°
2026-04-18 06:30 -40.50001 146.65427 31720 ft 464 kts 333°
2026-04-18 06:30 -40.46998 146.63846 32155 ft 464 kts 333°
2026-04-18 06:30 -40.44003 146.62270 32626 ft 463 kts 333°
2026-04-18 06:31 -40.41025 146.60706 33112 ft 461 kts 333°
2026-04-18 06:31 -40.38055 146.59147 33619 ft 457 kts 333°
2026-04-18 06:31 -40.35115 146.57608 34162 ft 454 kts 333°
2026-04-18 06:32 -40.29185 146.54498 34193 ft 461 kts 333°
2026-04-18 06:32 -40.23276 146.51413 34181 ft 453 kts 333°
2026-04-18 06:33 -40.17414 146.48355 34197 ft 453 kts 333°
2026-04-18 06:33 -40.11550 146.45299 34199 ft 454 kts 333°
2026-04-18 06:34 -40.05708 146.42262 34197 ft 455 kts 333°
2026-04-18 06:34 -39.99817 146.39207 34198 ft 455 kts 333°
2026-04-18 06:35 -39.93918 146.36165 34203 ft 455 kts 333°
2026-04-18 06:35 -39.88025 146.33137 34199 ft 454 kts 333°
2026-04-18 06:36 -39.82149 146.30121 34203 ft 453 kts 333°
2026-04-18 06:36 -39.76330 146.27136 34196 ft 451 kts 333°
2026-04-18 06:37 -39.70501 146.24154 34202 ft 449 kts 333°
2026-04-18 06:37 -39.64690 146.21197 34204 ft 447 kts 333°
2026-04-18 06:38 -39.58900 146.18260 34201 ft 447 kts 333°
2026-04-18 06:38 -39.53101 146.15321 34216 ft 447 kts 333°
2026-04-18 06:39 -39.47334 146.12402 34215 ft 448 kts 334°
2026-04-18 06:39 -39.41529 146.09470 34218 ft 448 kts 334°
2026-04-18 06:40 -39.35708 146.06530 34223 ft 449 kts 334°
2026-04-18 06:40 -39.29882 146.03584 34211 ft 449 kts 334°
2026-04-18 06:41 -39.24078 146.00656 34216 ft 447 kts 334°
2026-04-18 06:41 -39.18288 145.97741 34218 ft 446 kts 334°
2026-04-18 06:42 -39.12543 145.94853 34222 ft 445 kts 334°
2026-04-18 06:42 -39.06778 145.91960 34226 ft 444 kts 334°
2026-04-18 06:43 -39.01020 145.89075 34230 ft 444 kts 334°
2026-04-18 06:43 -38.95271 145.86200 34225 ft 443 kts 334°
2026-04-18 06:43 -38.92395 145.84763 33849 ft 441 kts 334°
2026-04-18 06:44 -38.89556 145.83349 33493 ft 435 kts 334°
2026-04-18 06:44 -38.86750 145.81952 33088 ft 430 kts 334°
2026-04-18 06:44 -38.83969 145.80568 32646 ft 426 kts 334°
2026-04-18 06:44 -38.81252 145.79215 32239 ft 423 kts 334°
2026-04-18 06:45 -38.78517 145.77853 31807 ft 419 kts 334°
2026-04-18 06:45 -38.75811 145.76506 31413 ft 415 kts 334°
2026-04-18 06:45 -38.73125 145.75173 31008 ft 412 kts 334°
2026-04-18 06:45 -38.70462 145.73852 30605 ft 409 kts 334°
2026-04-18 06:46 -38.67818 145.72542 30181 ft 407 kts 335°
2026-04-18 06:46 -38.65187 145.71238 29733 ft 404 kts 335°
2026-04-18 06:46 -38.62582 145.69949 29301 ft 400 kts 335°
2026-04-18 06:46 -38.59989 145.68665 28862 ft 399 kts 335°
2026-04-18 06:47 -38.57406 145.67387 28454 ft 398 kts 335°
2026-04-18 06:47 -38.54820 145.66109 28012 ft 398 kts 335°
2026-04-18 06:47 -38.52269 145.64849 27589 ft 397 kts 335°
2026-04-18 06:47 -38.49692 145.63579 27152 ft 394 kts 335°
2026-04-18 06:48 -38.47146 145.62313 26726 ft 391 kts 333°
2026-04-18 06:48 -38.44715 145.60823 26302 ft 385 kts 328°
2026-04-18 06:48 -38.42371 145.59210 25886 ft 382 kts 327°
2026-04-18 06:48 -38.40046 145.57565 25467 ft 379 kts 327°
2026-04-18 06:49 -38.37768 145.55951 25067 ft 377 kts 327°
2026-04-18 06:49 -38.35474 145.54340 24644 ft 376 kts 327°
2026-04-18 06:49 -38.33186 145.52747 24243 ft 374 kts 327°
2026-04-18 06:49 -38.30903 145.51169 23810 ft 372 kts 328°
2026-04-18 06:50 -38.28629 145.49605 23332 ft 370 kts 328°
2026-04-18 06:50 -38.26371 145.48054 22882 ft 368 kts 328°
2026-04-18 06:50 -38.24125 145.46515 22449 ft 365 kts 327°
2026-04-18 06:50 -38.21925 145.45008 22032 ft 362 kts 327°
2026-04-18 06:51 -38.19690 145.43479 21610 ft 359 kts 327°
2026-04-18 06:51 -38.17499 145.41980 21192 ft 356 kts 327°
2026-04-18 06:51 -38.15350 145.40511 20796 ft 354 kts 327°
2026-04-18 06:51 -38.13189 145.39035 20390 ft 352 kts 327°
2026-04-18 06:52 -38.11039 145.37568 19984 ft 350 kts 327°
2026-04-18 06:52 -38.08903 145.36109 19582 ft 348 kts 327°
2026-04-18 06:52 -38.06772 145.34656 19181 ft 347 kts 327°
2026-04-18 06:52 -38.04652 145.33212 18769 ft 346 kts 327°
2026-04-18 06:53 -38.02529 145.31767 18327 ft 345 kts 327°
2026-04-18 06:53 -38.00424 145.30324 17885 ft 343 kts 327°
2026-04-18 06:53 -37.98341 145.28867 17460 ft 341 kts 326°
2026-04-18 06:53 -37.96271 145.27411 17045 ft 339 kts 326°
2026-04-18 06:54 -37.94214 145.25966 16629 ft 337 kts 327°
2026-04-18 06:54 -37.92170 145.24532 16223 ft 335 kts 326°
2026-04-18 06:54 -37.90140 145.23110 15829 ft 332 kts 327°
2026-04-18 06:54 -37.88126 145.21702 15508 ft 328 kts 327°
2026-04-18 06:55 -37.86139 145.20315 15130 ft 326 kts 327°
2026-04-18 06:55 -37.84152 145.18930 14694 ft 326 kts 327°
2026-04-18 06:55 -37.82146 145.17577 14310 ft 325 kts 328°
2026-04-18 06:55 -37.80151 145.16255 13945 ft 323 kts 328°
2026-04-18 06:56 -37.78169 145.14942 13542 ft 320 kts 328°
2026-04-18 06:56 -37.76125 145.13818 13114 ft 324 kts 344°
2026-04-18 06:56 -37.73903 145.13602 12725 ft 326 kts 359°
2026-04-18 06:56 -37.71645 145.13745 12361 ft 323 kts
2026-04-18 06:57 -37.69415 145.13937 12118 ft 316 kts
2026-04-18 06:57 -37.65142 145.14329 11674 ft 303 kts
2026-04-18 06:57 -37.63038 145.14523 11325 ft 301 kts
2026-04-18 06:58 -37.60980 145.14326 10950 ft 296 kts 340°
2026-04-18 06:58 -37.59085 145.13405 10652 ft 290 kts 333°
2026-04-18 06:58 -37.57246 145.12368 10316 ft 289 kts 332°
2026-04-18 06:58 -37.55421 145.11315 9967 ft 288 kts 332°
2026-04-18 06:59 -37.53587 145.10248 9344 ft 293 kts 332°
2026-04-18 06:59 -37.51760 145.09173 8713 ft 294 kts 332°
2026-04-18 06:59 -37.49918 145.08081 8190 ft 290 kts 333°
2026-04-18 06:59 -37.48110 145.07000 7654 ft 287 kts 331°
2026-04-18 07:00 -37.46317 145.05890 7037 ft 286 kts 326°
2026-04-18 07:00 -37.44946 145.04199 6728 ft 269 kts 299°
2026-04-18 07:00 -37.44078 145.02154 6507 ft 263 kts 292°
2026-04-18 07:00 -37.43290 145.00099 6234 ft 259 kts 292°
2026-04-18 07:01 -37.42671 144.98005 5967 ft 253 kts 276°
2026-04-18 07:01 -37.42530 144.95822 5731 ft 248 kts 271°
2026-04-18 07:01 -37.42395 144.93694 5482 ft 245 kts 271°
2026-04-18 07:01 -37.42267 144.91566 5238 ft 243 kts 271°
2026-04-18 07:02 -37.42280 144.89465 4950 ft 237 kts 249°
2026-04-18 07:02 -37.43091 144.87725 4728 ft 230 kts 232°
2026-04-18 07:02 -37.43961 144.86035 4455 ft 230 kts 238°
2026-04-18 07:02 -37.44636 144.84219 4262 ft 226 kts 248°
2026-04-18 07:03 -37.44956 144.82974 4278 ft 217 kts 250°
2026-04-18 07:03 -37.45454 144.81248 4135 ft 201 kts 225°
2026-04-18 07:03 -37.46553 144.80467 4168 ft 183 kts 186°
2026-04-18 07:03 -37.47842 144.80424 3951 ft 188 kts 179°
2026-04-18 07:04 -37.49123 144.80512 3705 ft 185 kts 175°
2026-04-18 07:04 -37.50373 144.80700 3463 ft 176 kts 172°
2026-04-18 07:04 -37.51552 144.80912 3216 ft 164 kts 171°
2026-04-18 07:04 -37.52642 144.81115 2997 ft 153 kts 172°
2026-04-18 07:05 -37.53645 144.81303 2793 ft 140 kts 171°
2026-04-18 07:05 -37.54587 144.81479 2650 ft 134 kts 171°
2026-04-18 07:05 -37.55482 144.81647 2438 ft 126 kts 171°
2026-04-18 07:05 -37.56346 144.81809 2274 ft 126 kts 171°
2026-04-18 07:06 -37.57220 144.81972 2106 ft 128 kts 171°
2026-04-18 07:06 -37.58087 144.82135 1935 ft 123 kts 171°
2026-04-18 07:06 -37.58938 144.82295 1751 ft 124 kts 172°
2026-04-18 07:06 -37.59800 144.82457 1570 ft 126 kts 169°
2026-04-18 07:07 -37.60644 144.82614 1408 ft 121 kts 170°
2026-04-18 07:07 -37.61496 144.82774 1258 ft 127 kts 171°
2026-04-18 07:07 -37.62381 144.82939 1053 ft 127 kts 174°
2026-04-18 07:07 -37.63230 144.83100 900 ft 124 kts 172°
2026-04-18 07:08 -37.64104 144.83263 716 ft 130 kts 174°
2026-04-18 07:08 -37.64983 144.83429 586 ft 125 kts 171°
2026-04-18 07:08 -37.65823 144.83593 425 ft 117 kts 172°
2026-04-18 07:08 -37.66523 144.83718 403 ft 81 kts 172°
2026-04-18 07:09 -37.66906 144.83793 389 ft 40 kts 163°
2026-04-18 07:09 -37.67100 144.83924 382 ft 16 kts 140°
2026-04-18 07:09 -37.67125 144.83949 381 ft 0 kts 142°
2026-04-18 07:10 -37.67126 144.83950 381 ft 1 kts 142°
2026-04-18 07:10 -37.67134 144.83958 380 ft 3 kts 142°
2026-04-18 07:10 -37.67187 144.84013 378 ft 15 kts 134°
2026-04-18 07:10 -37.67219 144.84164 378 ft 20 kts 84°
2026-04-18 07:11 -37.67206 144.84335 382 ft 20 kts 84°
2026-04-18 07:11 -37.67209 144.84507 384 ft 19 kts 95°
2026-04-18 07:11 -37.67195 144.84654 386 ft 10 kts 78°
2026-04-18 07:11 -37.67172 144.84676 387 ft 4 kts 24°
2026-04-18 07:12 -37.67145 144.84695 388 ft 4 kts 30°
2026-04-18 07:12 -37.67123 144.84712 389 ft 0 kts 32°
2026-04-18 07:12 -37.67119 144.84716 389 ft 0 kts 33°